Tracking 35331 objects as of 16-Sep-2026
HD Live streaming from Space Station
objects crossing your sky now

STARLINK-37910

Track STARLINK-37910 now!
10-day predictions
STARLINK-37910 is classified as:


NORAD ID: 69961
Int'l Code: 2026-157U
Launch date: July 9, 2026
Source: United States (US)
Launch site: AIR FORCE EASTERN TEST RANGE (AFETR)
Your satellite tracking list
Your tracking list is empty




NASA's NSSDC Master Catalog

Two Line Element Set (TLE):
1 69961U 26157U   26258.69957686  .00019182  00000-0  57711-3 0  9996
2 69961  53.1593 356.3304 0001226  62.9718 297.1410 15.34415255 10636
Source of the keplerian elements: AFSPC